Regional Weather Roundup
Issued by NWS

Home | Current Version | Previous Version | Graphics & Text | Print | Product List | Glossary Off
Versions: 1 2 3 4 5 6 7 8 9 10 11 12 13 14 15 16 17 18 19 20 21 22 23 24 25 26 27 28 29 30 31 32 33 34 35 36 37 38 39 40 41 42 43 44 45 46 47 48 49 50

000
ASUS43 KTOP 261859
RWRKS

WEATHER ROUNDUP FOR KANSAS
NATIONAL WEATHER SERVICE GOODLAND KS
200 PM CDT THU MAR 26 2015

NOTE:  "FAIR" INDICATES FEW OR NO CLOUDS BELOW 12,000 FEET WITH NO
SIGNIFICANT WEATHER AND/OR OBSTRUCTIONS TO VISIBILITY.

KSZ001>006-013>018-027>032-041>047-262000-
NORTHWEST KANSAS

CITY           SKY/WX    TMP DP  RH WIND       PRES   REMARKS
GOODLAND       PTSUNNY   59  25  27 N23G32    30.12F
HAYS           SUNNY     55  30  38 SW14      30.15F
HILL CITY      PTSUNNY   58  33  39 W12G18    30.11F
RUSSELL        MOSUNNY   54  29  38 SW8       30.14F
$$

KSZ061>065-074>080-084>089-262000-
SOUTHWEST KANSAS

CITY           SKY/WX    TMP DP  RH WIND       PRES   REMARKS
DODGE CITY     SUNNY     59  32  36 W17       30.16F
ELKHART          N/A     58  32  37 W13         N/A
GARDEN CITY    SUNNY     57  32  38 W15G28    30.15F
GREAT BEND     SUNNY     54  30  40 W8        30.17F
LIBERAL        SUNNY     59  36  41 W10G18    30.20F
$$

KSZ066>073-081>083-090>101-262000-
SOUTHEAST KANSAS

CITY           SKY/WX    TMP DP  RH WIND       PRES   REMARKS
CHANUTE        SUNNY     51  28  41 NW8       30.18F
COFFEYVILLE    SUNNY     52  28  39 N16       30.19F
HUTCHINSON     SUNNY     52  27  38 VRB3      30.19F
MEDICINE LODGE   N/A     55  30  38 NW6       30.20F
NEWTON         SUNNY     48  28  46 N7        30.20F
PARSONS        SUNNY     53  30  41 N12       30.19F
WICHITA INTL   MOSUNNY   51  28  41 N7        30.20F
WICHITA JABRA  SUNNY     51  28  41 NE7       30.19F
WINFIELD       SUNNY     53  27  36 NE8       30.21F
$$

KSZ007>012-019>026-033>040-048>060-102>105-262000-
NORTHEAST KANSAS

CITY           SKY/WX    TMP DP  RH WIND       PRES   REMARKS
CONCORDIA      MOSUNNY   52  25  35 NW5       30.15F
EMPORIA        SUNNY     49  24  37 N10       30.18F
LAWRENCE       SUNNY     49  27  42 N8        30.18F
MANHATTAN      SUNNY     51  26  37 VRB3      30.18F
OLATHE IND     MOSUNNY   48  28  46 NW8G22    30.17F
OLATHE EXE     MOSUNNY   48  27  44 N13       30.15F
SALINA         SUNNY     53  28  38 W7        30.19F
TOPEKA BILLARD SUNNY     50  28  42 NW10G22   30.19F
TOPEKA FORBES  SUNNY     50  29  44 N12       30.17F
$$


USA.gov is the U.S. government's official web portal to all federal, state and local government web resources and services.